Home   Weather   El Monte   Past weeks

Flag for USA Past Weather in El Monte, California, USA — Yesterday and Last 2 Weeks

60 °F


Feels Like: 60 °F
Forecast: 64 / 92 °F
Wind: No wind

Location: Fullerton Municipal Airport

Current Time: Oct 21, 2016 at 6:14:00 AM

Latest Report: Oct 21, 2016 at 4:53 AM

Visibility: 10 mi

Pressure: 29.85 "Hg

Humidity: 49%

Dew Point: 41 °F

Location of El MonteLocation

Past Weather in El Monte — Graph


El Monte Temperature Yesterday

Maximum temperature yesterday: 100 °F (at 3:53 PM)
Minimum temperature yesterday: 61 °F (at 4:53 AM)
Average temperature yesterday: 79 °F

High & Low Weather Summary for the Past Weeks

High100 °F (Oct 20, 3:53 PM)94% (Oct 17, 4:53 AM)30.08 "Hg (Oct 17, 4:53 AM)
Low55 °F (Oct 13, 6:53 AM)3% (Oct 20, 2:53 PM)29.79 "Hg (Oct 7, 4:53 PM)
Average71 °F56%29.94 "Hg
* Reported Oct 6 4:53 AM — Oct 21 4:53 AM, El Monte, Weather by CustomWeather, © 2016

Note: Actual official high and low records may vary slightly from our data, if they occured in-between our weather recording intervals... More about our weather records


El Monte Weather History for the Previous 24 Hours

Scroll right to see more
Time TempWeatherWind HumidityBarometerVisibility
4:53 AM
Fri, Oct 21
60 °FClear.No wind49%29.85 "Hg10 mi
3:53 AM61 °FClear.No wind50%29.84 "Hg10 mi
2:53 AM63 °FClear.No wind47%29.85 "Hg10 mi
1:53 AM64 °FClear.No wind47%29.85 "Hg10 mi
12:53 AM65 °FClear.No wind44%29.85 "Hg10 mi
11:53 PM
Thu, Oct 20
69 °FClear.No wind33%29.86 "Hg10 mi
10:53 PM70 °FClear.No wind32%29.87 "Hg10 mi
9:53 PM73 °FClear.No wind27%29.87 "Hg10 mi
8:53 PM77 °FClear.No wind19%29.86 "Hg10 mi
7:53 PM79 °FClear.No wind17%29.86 "Hg10 mi
6:53 PM84 °FClear.5 mph12%29.85 "Hg10 mi
5:53 PM91 °FSunny.6 mph10%29.84 "Hg10 mi
4:53 PM97 °FSunny.5 mph6%29.84 "Hg10 mi
3:53 PM100 °FSunny.8 mph3%29.84 "Hg10 mi
2:53 PM99 °FSunny.8 mph3%29.85 "Hg10 mi
1:53 PM98 °FSunny.8 mph4%29.88 "Hg10 mi
12:53 PM97 °FSunny.7 mph4%29.91 "Hg10 mi
11:53 AM95 °FSunny.9 mph4%29.94 "Hg10 mi
10:53 AM94 °FSunny.7 mph5%29.96 "Hg10 mi
9:53 AM89 °FSunny.No wind8%29.97 "Hg10 mi
8:53 AM77 °FSunny.No wind23%29.96 "Hg10 mi
7:53 AM66 °FSunny.No wind34%29.95 "Hg10 mi
6:53 AM61 °FClear.3 mph39%29.94 "Hg10 mi
Weather by CustomWeather, © 2016

See weather overviewHow to use our weather pages